Meteo Giornale » Osservazioni meteo Francia » Beauvais

ore: 02:30 - Osservazioni Meteo Beauvais
Lat. 49° 28' N Lon. 2° 7' E Alt. 109 metri s.l.m.

sereno Europe/Paris

10 °C

Sereno

Temp. 24 Ore

7 °C

20 °C

Nord/Nord-Est

16.7 Km/h

Dew point 6 °C

Umidità 76 %

Visibilità  10 Km

Il sole sorge alle ore 07:32

Il sole tramonta alle ore 19:58

Data e Ora Cielo e Fenomeni T °C DP °C Um. % Pres. hPa Vis. km Vento km/h
Oggi h: 02:30 sereno Sereno 10 6 76 1028 10 N/NE 16.7
Oggi h: 02:00 sereno Sereno 10 6 76 1028 10 N/NE 14.8
Oggi h: 01:30 sereno Sereno 11 6 71 1028 10 N/NE 14.8
Oggi h: 01:00 sereno Sereno 11 6 71 1028 10 N/NE 18.5
Oggi h: 00:30 sereno Sereno 11 6 71 1028 10 N/NE 16.7
Oggi h: 00:00 sereno Sereno 11 6 71 1028 10 N/NE 14.8
Ieri h: 23:30 sereno Sereno 12 6 66 1028 10 N/NE 14.8
Ieri h: 23:00 sereno Sereno 12 6 66 1028 10 N 14.8
Ieri h: 22:30 sereno Sereno 12 5 62 1027 10 N 13
Ieri h: 22:00 sereno Sereno 13 6 62 1027 10 N/NE 13
Ieri h: 21:30 sereno Sereno 13 5 58 1027 10 N/NE 13
Ieri h: 21:00 sereno Sereno 14 5 54 1027 10 N/NE 13
Ieri h: 20:30 sereno Sereno 15 5 51 1026 10 N/NE 13
Ieri h: 20:00 sereno Sereno 16 5 47 1026 10 NE 18.5
Ieri h: 19:30 sereno Sereno 17 5 45 1026 10 NE 20.3
Ieri h: 19:00 sereno Sereno 18 5 42 1026 10 NE 22.2
Ieri h: 18:30 sereno Sereno 18 5 42 1026 10 NE 25.9
Ieri h: 18:00 sereno Sereno 19 5 39 1026 10 N/NE 22.2
Ieri h: 17:30 sereno Sereno 19 4 37 1026 10 N/NE 25.9
Ieri h: 17:00 sereno Sereno 20 5 37 1026 10 N/NE 24
Ieri h: 16:30 sereno Sereno 19 5 39 1026 10 NE 25.9
Ieri h: 16:00 sereno Sereno 19 5 39 1026 10 N/NE 27.8
Ieri h: 15:30 sereno Sereno 19 5 39 1026 10 N/NE 27.8
Ieri h: 15:00 sereno Sereno 18 5 42 1026 10 NE 25.9
Ieri h: 14:30 sereno Sereno 19 5 39 1027 10 NE 27.8
Ieri h: 14:00 sereno Sereno 18 5 42 1027 10 NE 29.6
Ieri h: 13:30 sereno Sereno 17 5 45 1027 10 NE 29.6
Ieri h: 13:00 sereno Sereno 17 5 45 1027 10 NE 29.6
Ieri h: 12:30 sereno Sereno 17 7 51 1027 10 NE 25.9
Ieri h: 12:00 sereno Sereno 16 6 51 1027 10 NE 27.8
Ieri h: 11:30 sereno Sereno 16 6 51 1027 10 NE 24
Ieri h: 11:00 sereno Sereno 15 7 58 1028 10 NE 25.9
Ieri h: 10:30 poco_nuvoloso Poco Nuvoloso 14 7 62 1027 10 NE 18.5
Ieri h: 10:00 sereno Sereno 13 6 62 1027 10 NE 22.2
Ieri h: 09:30 poco_nuvoloso Poco Nuvoloso 12 7 71 1027 10 NE 14.8
Ieri h: 09:00 sereno Sereno 11 7 76 1027 10 N/NE 13
Ieri h: 08:30 sereno Sereno 9 7 87 1026 10 N/NE 13
Ieri h: 08:00 sereno Sereno 7 6 93 1026 10 N/NE 13
Ieri h: 07:30 sereno Sereno 7 5 87 1026 10 N/NE 13
Ieri h: 07:00 sereno Sereno 7 6 93 1026 10 N/NE 13
Ieri h: 06:30 sereno Sereno 7 5 87 1026 10 N/NE 9.3
Ieri h: 06:00 sereno Sereno 7 5 87 1026 10 N/NE 13
Ieri h: 05:30 sereno Sereno 8 6 87 1026 10 N/NE 13
Ieri h: 05:00 sereno Sereno 8 5 81 1026 10 N/NE 11.1
Ieri h: 04:30 sereno Sereno 8 6 87 1026 10 N/NE 13
Ieri h: 04:00 sereno Sereno 9 6 81 1026 10 N/NE 16.7
Ieri h: 03:30 sereno Sereno 10 7 81 1025 10 N/NE 20.3
Ieri h: 03:00 sereno Sereno 10 7 81 1025 10 N/NE 18.5